Location: Nelson
(41.2830°S, 173.2830°E)
Time: 04:12:36
(UTC+13:00)

Cosmos 292 Rocket - Pass Details

Date: 24 January 2019
Orbit: 673 x 695 km, 74.0° (Epoch: 18 February)

Event Time Altitude Azimuth Distance (km) Brightness Sun altitude
Rises 21:35:42 0° 203° (SSW) 3,063 8.2 -7.4°
Reaches altitude 10° 21:38:01 10° 205° (SSW) 2,142 7.4 -7.8°
Maximum altitude 21:42:48 68° 286° (WNW) 741 4.1 -8.5°
Drops below altitude 10° 21:47:33 10° 8° (N) 2,123 5.9 -9.2°
Enters shadow 21:49:06 - 10° (N) 2,737 6.4 -9.5°
